Hourly Weather Aliabad

Today, 4 March, Thursday

Time Temperature Precipitation Wind Pressure Humidity
00:00 +3°C° 0 mm 3 mps 744 mmHg 59%
01:00 +2°C° 0 mm 3 mps 744 mmHg 60%
02:00 +2°C° 0 mm 3 mps 744 mmHg 61%
03:00 +3°C° 0 mm 2 mps 744 mmHg 62%
04:00 +3°C° 0 mm 2 mps 745 mmHg 61%
05:00 +2°C° 0 mm 2 mps 746 mmHg 60%
06:00 +2°C° 0 mm 2 mps 746 mmHg 60%
07:00 +3°C° 0 mm 2 mps 746 mmHg 56%
08:00 +5°C° 0 mm 2 mps 747 mmHg 52%
09:00 +6°C° 0 mm 2 mps 747 mmHg 48%
10:00 +7°C° 0 mm 2 mps 747 mmHg 46%
11:00 +8°C° 0 mm 3 mps 746 mmHg 45%
12:00 +9°C° 0 mm 3 mps 746 mmHg 44%
13:00 +10°C° 0 mm 3 mps 746 mmHg 44%
14:00 +10°C° 0 mm 3 mps 746 mmHg 45%
15:00 +10°C° 0 mm 4 mps 745 mmHg 46%
16:00 +9°C° 0 mm 3 mps 745 mmHg 52%
17:00 +8°C° 0 mm 3 mps 745 mmHg 57%
18:00 +5°C° 0 mm 3 mps 745 mmHg 63%
19:00 +6°C° 0 mm 2 mps 746 mmHg 63%
20:00 +5°C° 0 mm 2 mps 746 mmHg 63%
21:00 +5°C° 0 mm 2 mps 746 mmHg 63%
22:00 +4°C° 0 mm 2 mps 745 mmHg 66%
23:00 +5°C° 0 mm 1 mps 745 mmHg 69%

Tomorrow, 5 March, Friday

Time Temperature Precipitation Wind Pressure Humidity
00:00 +5°C° 0 mm 1 mps 744 mmHg 72%
01:00 +4°C° 0 mm 1 mps 744 mmHg 73%
02:00 +4°C° 0 mm 1 mps 744 mmHg 74%
03:00 +3°C° 0 mm 0 mps 743 mmHg 76%
04:00 +3°C° 0 mm 0 mps 743 mmHg 76%
05:00 +3°C° 0 mm 0 mps 742 mmHg 77%
06:00 +3°C° 0 mm 0 mps 742 mmHg 77%
07:00 +4°C° 0 mm 0 mps 742 mmHg 75%
08:00 +6°C° 0 mm 1 mps 742 mmHg 73%
09:00 +6°C° 0 mm 1 mps 742 mmHg 71%
10:00 +8°C° 0 mm 1 mps 741 mmHg 65%
11:00 +8°C° 0 mm 2 mps 741 mmHg 60%
12:00 +9°C° 0 mm 3 mps 740 mmHg 54%
13:00 +10°C° 0 mm 2 mps 740 mmHg 52%
14:00 +10°C° 0 mm 2 mps 740 mmHg 51%
15:00 +12°C° 0 mm 2 mps 739 mmHg 49%
16:00 +10°C° 0 mm 2 mps 740 mmHg 51%
17:00 +10°C° 0 mm 1 mps 740 mmHg 53%
18:00 +9°C° 0 mm 1 mps 741 mmHg 56%
19:00 +9°C° 0 mm 1 mps 741 mmHg 53%
20:00 +7°C° 0 mm 2 mps 742 mmHg 51%
21:00 +7°C° 0 mm 2 mps 743 mmHg 49%
22:00 +7°C° 0 mm 1 mps 743 mmHg 49%
23:00 +7°C° 0 mm 1 mps 743 mmHg 48%

Day after tomorrow, 6 March, Saturday

Time Temperature Precipitation Wind Pressure Humidity
00:00 +7°C° 0 mm 1 mps 743 mmHg 48%
01:00 +6°C° 0 mm 1 mps 743 mmHg 50%
02:00 +6°C° 0 mm 1 mps 742 mmHg 51%
03:00 +6°C° 0 mm 1 mps 742 mmHg 53%
04:00 +6°C° 0 mm 1 mps 742 mmHg 54%
05:00 +5°C° 0 mm 2 mps 743 mmHg 54%
06:00 +5°C° 0 mm 2 mps 743 mmHg 55%
07:00 +6°C° 0 mm 2 mps 742 mmHg 51%
08:00 +8°C° 0 mm 2 mps 742 mmHg 46%
09:00 +10°C° 0 mm 2 mps 742 mmHg 42%
10:00 +12°C° 0 mm 2 mps 742 mmHg 39%
11:00 +13°C° 0 mm 2 mps 741 mmHg 36%
12:00 +15°C° 0 mm 2 mps 740 mmHg 32%
13:00 +15°C° 0 mm 2 mps 740 mmHg 31%
14:00 +16°C° 0 mm 2 mps 739 mmHg 29%
15:00 +17°C° 0 mm 2 mps 739 mmHg 28%
16:00 +15°C° 0 mm 2 mps 739 mmHg 30%
17:00 +13°C° 0 mm 2 mps 739 mmHg 33%
18:00 +12°C° 0 mm 2 mps 739 mmHg 36%
19:00 +10°C° 0 mm 2 mps 739 mmHg 35%
20:00 +10°C° 0 mm 2 mps 739 mmHg 34%
21:00 +10°C° 0 mm 2 mps 739 mmHg 32%
22:00 +9°C° 0 mm 2 mps 739 mmHg 32%
23:00 +9°C° 0 mm 2 mps 738 mmHg 32%

7 March, Sunday

Time Temperature Precipitation Wind Pressure Humidity
00:00 +9°C° 0 mm 2 mps 738 mmHg 33%
01:00 +9°C° 0 mm 2 mps 738 mmHg 33%
02:00 +9°C° 0 mm 2 mps 737 mmHg 34%
03:00 +9°C° 0 mm 2 mps 737 mmHg 34%
04:00 +8°C° 0 mm 2 mps 737 mmHg 35%
05:00 +8°C° 0 mm 2 mps 737 mmHg 36%
06:00 +8°C° 0 mm 2 mps 738 mmHg 37%
07:00 +10°C° 0 mm 3 mps 738 mmHg 37%
08:00 +11°C° 0 mm 4 mps 738 mmHg 36%
09:00 +12°C° 0 mm 4 mps 739 mmHg 36%
10:00 +13°C° 0 mm 5 mps 739 mmHg 36%
11:00 +14°C° 0 mm 6 mps 739 mmHg 35%
12:00 +15°C° 0 mm 7 mps 739 mmHg 35%
13:00 +15°C° 0 mm 7 mps 739 mmHg 35%
14:00 +14°C° 0 mm 7 mps 739 mmHg 36%
15:00 +12°C° 0 mm 7 mps 739 mmHg 36%
16:00 +11°C° 0 mm 6 mps 740 mmHg 39%
17:00 +11°C° 0 mm 4 mps 740 mmHg 42%
18:00 +9°C° 0 mm 3 mps 741 mmHg 45%
19:00 +8°C° 0 mm 3 mps 742 mmHg 43%
20:00 +7°C° 0 mm 3 mps 742 mmHg 42%
21:00 +5°C° 0 mm 3 mps 743 mmHg 41%
22:00 +5°C° 0 mm 3 mps 743 mmHg 49%
23:00 +4°C° 0 mm 3 mps 743 mmHg 57%

8 March, Monday

Time Temperature Precipitation Wind Pressure Humidity
00:00 +4°C° 0 mm 4 mps 743 mmHg 66%
01:00 +3°C° 0 mm 3 mps 743 mmHg 70%
02:00 +3°C° 0 mm 3 mps 743 mmHg 75%
03:00 +2°C° 0 mm 3 mps 743 mmHg 79%
04:00 +3°C° 0 mm 2 mps 743 mmHg 81%
05:00 +3°C° 0 mm 2 mps 743 mmHg 83%
06:00 +3°C° 0 mm 2 mps 743 mmHg 84%
07:00 +3°C° 0.1 mm 2 mps 743 mmHg 83%
08:00 +3°C° 0.1 mm 2 mps 742 mmHg 82%
09:00 +4°C° 0.1 mm 2 mps 742 mmHg 81%
10:00 +6°C° 0.1 mm 1 mps 742 mmHg 77%
11:00 +6°C° 0.1 mm 1 mps 741 mmHg 72%
12:00 +7°C° 0.1 mm 1 mps 740 mmHg 68%
13:00 +8°C° 0 mm 1 mps 740 mmHg 65%
14:00 +8°C° 0 mm 1 mps 739 mmHg 62%
15:00 +9°C° 0 mm 1 mps 739 mmHg 60%
16:00 +8°C° 0 mm 1 mps 739 mmHg 62%
17:00 +8°C° 0 mm 1 mps 739 mmHg 63%
18:00 +7°C° 0 mm 1 mps 739 mmHg 65%
19:00 +6°C° 0 mm 1 mps 739 mmHg 67%
20:00 +5°C° 0 mm 0 mps 740 mmHg 69%
21:00 +4°C° 0 mm 0 mps 740 mmHg 70%
22:00 +4°C° 0 mm 0 mps 740 mmHg 70%
23:00 +4°C° 0 mm 0 mps 740 mmHg 70%

9 March, Tuesday

Time Temperature Precipitation Wind Pressure Humidity
00:00 +3°C° 0 mm 0 mps 740 mmHg 69%
01:00 +4°C° 0 mm 1 mps 740 mmHg 70%
02:00 +4°C° 0 mm 1 mps 740 mmHg 70%
03:00 +4°C° 0 mm 1 mps 740 mmHg 70%
04:00 +3°C° 0 mm 1 mps 740 mmHg 70%
05:00 +3°C° 0 mm 1 mps 740 mmHg 70%
06:00 +3°C° 0 mm 1 mps 740 mmHg 71%
07:00 +5°C° 0 mm 1 mps 740 mmHg 66%
08:00 +6°C° 0 mm 1 mps 740 mmHg 60%
09:00 +7°C° 0 mm 2 mps 740 mmHg 55%
10:00 +8°C° 0 mm 2 mps 740 mmHg 50%
11:00 +9°C° 0 mm 3 mps 740 mmHg 45%
12:00 +11°C° 0 mm 3 mps 740 mmHg 40%
13:00 +11°C° 0 mm 4 mps 739 mmHg 37%
14:00 +12°C° 0 mm 4 mps 739 mmHg 35%
15:00 +12°C° 0 mm 4 mps 739 mmHg 32%
16:00 +10°C° 0 mm 3 mps 740 mmHg 33%
17:00 +9°C° 0 mm 2 mps 740 mmHg 34%
18:00 +8°C° 0 mm 2 mps 740 mmHg 35%
19:00 +7°C° 0 mm 2 mps 741 mmHg 35%
20:00 +7°C° 0 mm 2 mps 741 mmHg 36%
21:00 +6°C° 0 mm 2 mps 742 mmHg 36%
22:00 +6°C° 0 mm 2 mps 742 mmHg 38%
23:00 +5°C° 0 mm 2 mps 742 mmHg 40%
Show more